User: anonymous
Location: NJAA Observatory
(40.6819°N, 74.8979°W)
Time: 17:31:38
(UTC-04:00)
Language:

Landsat 5 - Orbit

View from above orbital plane
View from above orbital plane
View from above satellite
View from above satellite

Ground track
Ground track

The orbit data is extracted from the following two-line orbital elements,

1 14780U 84021A   14113.74338811  .00003032  00000-0  30596-3 0  2830
2 14780 098.0550 190.1450 0096251 351.8822 008.0901 14.88484476604520
Epoch (UTC): 23 April 2014 17:50:28
Eccentricity: 0.0096251
inclination: 98.0550°
perigee height: 535 km
apogee height: 670 km
right ascension of ascending node: 190.1450°
argument of perigee: 351.8822°
revolutions per day: 14.88484476
mean anomaly at epoch: 8.0901°
orbit number at epoch: 60452

The dashed part of the orbit path shows where the satellite is in the earth's shadow,  

DLR